2022-050C (52511 NORAD) Tracking and Keplerian Element Data

This shows tracking and keplerian element data for the satellite.

Feedback or suggestion? Click here.




ElementValue
Catalog52511
Name2022-050C
Epoch Orbit56
Epoch Day133.26930593
Epoch Year2022
RAAN70.3207
Inclination41.1126
Eccentricity0.0089819
Argument of Perigee188.0694
Mean Anonmoly294.4971
Mean Motion16.17944868
Decay Rate0.15691567
L11 52511U 22050C 22133.26930593 .15691567 63660-5 38331-2 0 9997
L22 52511 41.1126 70.3207 0089819 188.0694 294.4971 16.17944868 562

Live tracking and technical data element details for 2022-050C (NORAD 52511). 2022-050C can be tracked NOW for your location showing map with azimuth and elevation plus other details from your city location.

Track the satellite on the map from your city or location and see movement details for azimuth, elevation, latitude, longitude, range, height, and movement on the map or in text.







IsCatalogInMostPopularTable: catalog: 52511, numindb: 4
Update: records affected: 1



GetName: 52511 2022-050C

Hit Count: updated at: Sun, 14 Aug 2022 00:14:19 GMT